Abilene, TX

4:25 AM CDT on April 30, 2017 (GMT -0500)
Abilene Regional

Weather History for KABI - September, 2014

Change the Weather History Date:

Friday, September 12, 2014

  Actual Average Record
Temperature  
Mean Temperature 63 °F 77 °F  
Max Temperature 72 °F 88 °F 104 °F (1893)
Min Temperature 54 °F 66 °F 46 °F (1898)
Degree Days  
Heating Degree Days 2 0  
Month to date heating degree days 2 0  
Since 1 July heating degree days 2 0  
Cooling Degree Days 0 12  
Month to date cooling degree days 197 162  
Year to date cooling degree days 2381 2107  
Growing Degree Days 12 (Base 50)    
Moisture  
Dew Point 59 °F    
Average Humidity 89    
Maximum Humidity 100    
Minimum Humidity 78    
Precipitation  
Precipitation 0.05 in 0.08 in 2.57 in (1924)
Month to date precipitation 0.26 0.96  
Year to date precipitation 10.76 17.92  
Sea Level Pressure  
Sea Level Pressure 30.15 in    
Wind  
Wind Speed 14 mph (NNE)    
Max Wind Speed 24 mph    
Max Gust Speed 31 mph    
Visibility 7 miles    
Events Rain    
T = Trace of Precipitation, MM = Missing Value Source: NWS Daily Summary

Daily Weather History Graph

Daily Weather History Graph

Search for Another Location

Airport or City:

Trip Planner

Search our weather history database for the weather conditions in past years. The results will help you decide how hot, cold, wet, or windy it might be!

Date:

Astronomy

Sep. 12, 2014 Rise Set
Actual Time 7:20 AM CDT 7:48 PM CDT
Civil Twilight 6:55 AM CDT 8:13 PM CDT
Nautical Twilight 6:27 AM CDT 8:42 PM CDT
Astronomical Twilight 5:57 AM CDT 9:11 PM CDT
Moon 10:26 PM CDT (9/12) 11:10 AM CDT (9/12)
Length of Visible Light 13h 17m
Length of Day
12h 28m
Waning Gibbous, 83% of the Moon is Illuminated
Sep 12
Waning Gibbous
Sep 15
Last Quarter
Sep 24
New
Oct 1
First Quarter
Oct 8
Full

Hourly Weather History & Observations

Time (CDT) Temp. Dew Point Humidity Pressure Visibility Wind Dir Wind Speed Gust Speed Precip Events Conditions
12:31 AM 72.0 °F 64.0 °F 76% 30.08 in 10.0 mi NNE 4.6 mph - N/A   Mostly Cloudy
12:52 AM 72.0 °F 64.0 °F 76% 30.01 in 10.0 mi NNE 5.8 mph - N/A   Mostly Cloudy
1:16 AM 71.1 °F 64.0 °F 78% 30.07 in 10.0 mi NE 5.8 mph - N/A   Mostly Cloudy
1:52 AM 71.1 °F 64.0 °F 78% 30.00 in 10.0 mi North - - N/A   Partly Cloudy
2:10 AM 71.1 °F 64.0 °F 78% 30.07 in 10.0 mi NE 3.5 mph - N/A   Mostly Cloudy
2:52 AM 72.0 °F 64.0 °F 76% 30.00 in 10.0 mi ENE 4.6 mph - N/A   Overcast
3:52 AM 72.0 °F 64.0 °F 76% 29.99 in 10.0 mi ENE 8.1 mph - N/A   Overcast
4:27 AM 72.0 °F 64.9 °F 78% 30.06 in 10.0 mi NNE 5.8 mph - N/A   Overcast
4:52 AM 71.1 °F 64.9 °F 81% 29.99 in 10.0 mi NE 4.6 mph - N/A   Overcast
5:52 AM 70.0 °F 66.0 °F 87% 30.01 in 6.0 mi North 8.1 mph - N/A   Overcast
6:25 AM 69.1 °F 66.9 °F 93% 30.09 in 2.5 mi North 9.2 mph - 0.00 in Rain Light Rain
6:33 AM 69.1 °F 66.9 °F 93% 30.09 in 3.0 mi North 10.4 mph - 0.01 in Rain Light Rain
6:52 AM 68.0 °F 66.0 °F 93% 30.04 in 2.5 mi North 11.5 mph - 0.02 in Rain Light Rain
7:52 AM 66.9 °F 64.9 °F 93% 30.07 in 6.0 mi North 12.7 mph - 0.00 in Rain Light Rain
8:04 AM 66.9 °F 64.9 °F 93% 30.13 in 4.0 mi North 15.0 mph - 0.00 in   Overcast
8:52 AM 66.0 °F 64.0 °F 93% 30.08 in 10.0 mi NNE 10.4 mph - 0.01 in Rain Light Rain
9:03 AM 66.9 °F 64.9 °F 93% 30.14 in 10.0 mi NNE 10.4 mph - 0.00 in   Overcast
9:52 AM 66.9 °F 64.0 °F 90% 30.10 in 8.0 mi ENE 10.4 mph - 0.01 in Rain Light Rain
10:52 AM 68.0 °F 63.0 °F 84% 30.13 in 10.0 mi NE 15.0 mph - 0.00 in   Overcast
11:52 AM 66.9 °F 61.0 °F 81% 30.14 in 10.0 mi NE 16.1 mph 21.9 mph N/A   Overcast
12:52 PM 66.0 °F 60.1 °F 81% 30.15 in 10.0 mi NNE 18.4 mph 24.2 mph N/A   Mostly Cloudy
1:50 PM 64.4 °F 57.2 °F 77% 30.21 in 10.0 mi North 20.7 mph 25.3 mph N/A   Overcast
1:52 PM 64.0 °F 57.9 °F 80% 30.16 in 10.0 mi North 18.4 mph 25.3 mph N/A   Overcast
2:06 PM 64.0 °F 57.9 °F 80% 30.22 in 10.0 mi North 17.3 mph - N/A   Overcast
2:52 PM 63.0 °F 57.9 °F 84% 30.16 in 6.0 mi North 18.4 mph 26.5 mph N/A   Haze
3:05 PM 62.1 °F 59.0 °F 90% 30.21 in 2.0 mi North 17.3 mph 26.5 mph 0.00 in Rain Light Rain
3:12 PM 62.1 °F 59.0 °F 90% 30.21 in 2.0 mi North 19.6 mph 24.2 mph 0.00 in Rain Light Rain
3:32 PM 62.1 °F 57.0 °F 84% 30.21 in 5.0 mi North 18.4 mph 27.6 mph 0.00 in   Haze
3:52 PM 61.0 °F 57.0 °F 87% 30.16 in 4.0 mi North 15.0 mph 27.6 mph 0.00 in   Overcast
3:59 PM 62.1 °F 55.9 °F 80% 30.21 in 6.0 mi NNE 20.7 mph 26.5 mph N/A   Haze
4:52 PM 60.1 °F 55.0 °F 83% 30.17 in 6.0 mi North 19.6 mph 26.5 mph N/A   Haze
5:31 PM 60.1 °F 55.0 °F 83% 30.22 in 10.0 mi North 19.6 mph 26.5 mph N/A   Overcast
5:42 PM 59.0 °F 55.0 °F 87% 30.22 in 9.0 mi North 16.1 mph - N/A   Overcast
5:52 PM 59.0 °F 54.0 °F 83% 30.17 in 10.0 mi NNE 17.3 mph 26.5 mph N/A   Overcast
6:52 PM 59.0 °F 53.1 °F 81% 30.17 in 10.0 mi North 18.4 mph 31.1 mph N/A   Overcast
7:21 PM 57.9 °F 54.0 °F 87% 30.23 in 10.0 mi North 18.4 mph - N/A   Overcast
7:28 PM 57.9 °F 54.0 °F 87% 30.24 in 4.0 mi NNE 16.1 mph - N/A   Overcast
7:31 PM 57.9 °F 54.0 °F 87% 30.24 in 4.0 mi NNE 13.8 mph - N/A   Overcast
7:52 PM 57.0 °F 55.0 °F 93% 30.22 in 3.0 mi North 18.4 mph - 0.00 in Rain Light Rain
8:30 PM 57.0 °F 54.0 °F 89% 30.26 in 10.0 mi NNE 13.8 mph 26.5 mph 0.00 in   Overcast
8:42 PM 55.9 °F 54.0 °F 93% 30.28 in 4.0 mi NNE 11.5 mph 21.9 mph 0.00 in   Overcast
8:52 PM 55.9 °F 55.0 °F 97% 30.25 in 4.0 mi North 16.1 mph 23.0 mph 0.00 in   Overcast
10:16 PM 55.0 °F 54.0 °F 96% 30.30 in 4.0 mi NNE 12.7 mph 23.0 mph N/A   Overcast
10:52 PM 55.0 °F 54.0 °F 96% 30.27 in 6.0 mi North 16.1 mph 23.0 mph N/A   Overcast
11:00 PM 55.4 °F 53.6 °F 94% 30.32 in 4.0 mi North 12.7 mph 23.0 mph N/A   Overcast
11:44 PM 54.0 °F 53.1 °F 97% 30.31 in 5.0 mi NNE 15.0 mph 24.2 mph 0.01 in Rain Light Rain
11:52 PM 54.0 °F 53.1 °F 97% 30.27 in 4.0 mi North 15.0 mph 21.9 mph 0.01 in   Overcast